Regional Weather Roundup
Issued by NWS

Home | Current Version | Previous Version | Graphics & Text | Print | Product List | Glossary On
Versions: 1 2 3 4 5 6 7 8 9 10 11 12 13 14 15 16 17 18 19 20 21 22 23 24 25 26 27 28 29 30 31 32 33 34 35 36 37 38 39 40 41 42 43 44 45 46 47 48 49 50
000
ASUS43 KFSD 200610
RWRSD

WEATHER ROUNDUP FOR SOUTH DAKOTA
NATIONAL WEATHER SERVICE SIOUX FALLS SD
100 AM CDT FRI OCT 20 2017

NOTE: "FAIR" INDICATES FEW OR NO CLOUDS BELOW 12,000 FEET WITH NO
SIGNIFICANT WEATHER AND/OR OBSTRUCTIONS TO VISIBILITY.


SDZ001>005-009-010-012>017-200700-
NORTHWEST AND NORTH CENTRAL SOUTH DAKOTA

CITY           SKY/WX    TMP DP  RH WIND       PRES   REMARKS
BUFFALO          N/A     56  25  30 S5        29.54F
MOBRIDGE       CLEAR     58  46  64 SE14      29.63F
$$

SDZ012>016-024>037-041>051-057-063-072>074-200700-
SOUTHWEST AND SOUTH CENTRAL SOUTH DAKOTA

CITY           SKY/WX    TMP DP  RH WIND       PRES   REMARKS
RAPID CTY ARPT CLEAR     54  24  31 S6        29.68F
PIERRE         CLEAR     64  47  53 S12       29.68F
CUSTER         CLEAR     59  18  20 SW6       29.81F
ELLSWORTH AFB  CLEAR     59  23  25 S10       29.66F
PHILIP         PTCLDY    67  46  47 S14       29.67F
PINE RIDGE     CLEAR     65  44  46 S14       29.75S
SPEARFISH      FAIR      54  25  32 SE9       29.68F
WINNER         FAIR      68  46  45 S22G30    29.74F
$$

SDZ004>011-016>023-039-040-200700-
NORTHEAST SOUTH DAKOTA

CITY           SKY/WX    TMP DP  RH WIND       PRES   REMARKS
ABERDEEN       CLEAR     58  49  72 S14       29.72F
WATERTOWN      FAIR      53  49  86 S9        29.80F
BROOKINGS      FAIR      58  51  78 S13       29.84F
SISSETON         N/A     67  49  52 S20G29    29.73F
$$

SDZ017-020-022-023-036>040-048>070-200700-
SOUTHEAST SOUTH DAKOTA

CITY           SKY/WX    TMP DP  RH WIND       PRES   REMARKS
SIOUX FALLS    FAIR      64  52  64 S15       29.86S
HURON          CLEAR     58  49  72 S12       29.76F
CHAMBERLAIN    CLEAR     64  49  59 SE8       29.75F
MITCHELL       CLEAR     60  50  69 S14       29.80S
YANKTON        FAIR      57  50  77 SE5       29.86F
$$

ABBREVIATIONS USED IN REMARKS
   TC - TEMPERATURE IN CELSIUS
  WCI - WIND CHILL INDEX
   HX - HEAT INDEX
  VSB - VISIBILITY




USA.gov is the U.S. government's official web portal to all federal, state and local government web resources and services.